Regional Weather Roundup
Issued by NWS Wakefield, VA

Home | Current Version | Previous Version | Text Only | Print | Product List | Glossary On
Versions: 1 2 3 4 5 6 7 8 9 10 11 12 13 14 15 16 17 18 19 20 21 22 23 24 25 26 27
000
ASUS41 KAKQ 311515
RWRAKQ

REGIONAL WEATHER ROUNDUP
NATIONAL WEATHER SERVICE WAKEFIELD VA
1100 AM EDT TUE MAY 31 2016

Note: "fair" indicates few or no clouds below 12,000 feet with no
significant weather and/or obstructions to visibility. * = Denotes
station may not report precipitation (e.g., rain,snow,etc.),
thunder or fog.

VAZ042-051-052>054-056-311600-
NORTHERN VIRGINIA

CITY           SKY/WX    TMP DP  RH WIND       PRES   REMARKS
WASH NATIONAL  PTSUNNY   79  68  69 CALM      29.99S
DULLES         FAIR      80  66  62 VRB7      30.00R
FORT BELVOIR   PTSUNNY   77  68  73 CALM      29.99S
QUANTICO       FAIR      76  69  79 SE3       30.00S
FREDERICKSBRG* PTSUNNY   77  72  83 S5        29.99S
STAFFORD*      PTSUNNY   76  66  71 NE5       30.04R
WARRENTON      FAIR      82  63  53 NE6       30.00R
CULPEPER*      FAIR      81  68  66 NE3       30.00S
MANASSAS*      PTSUNNY   81  66  61 N7        29.99F
LEESBURG*      FAIR      81  70  69 NE7       30.01S
WINCHESTER     FAIR      79  64  61 CALM      30.02F
FRONT ROYAL*   FAIR      73  68  83 CALM      30.02F
LURAY*         FAIR      73  70  88 CALM      30.03F
$$

VAZ048-049-060>072-079>083-311600-
CENTRAL AND SOUTH CENTRAL VIRGINIA

CITY           SKY/WX    TMP DP  RH WIND       PRES   REMARKS
RICHMOND       PTSUNNY   75  67  76 SE3       29.99S
CHESTERFIELD*    N/A    N/A N/A N/A MISG        N/A
PETERSBURG*    FAIR      77  69  74 NW5       30.00S
HANOVER        PTSUNNY   78  64  61 N3        30.01S
TAPPAHANNOCK*  PTSUNNY   77  70  78 NE5       30.00S
QUINTON*       PTSUNNY   75  69  84 NW5       29.99R
CHARLOTTSVILLE FAIR      79  67  66 VRB6      30.00S
GORDONSVILLE*  FAIR      79  68  70 NE7       30.00S
ORANGE*        FAIR      79  70  73 CALM      30.02S
LOUISA*        FAIR      79  72  78 CALM      29.99S
BUMPASS*       CLOUDY    72  68  87 CALM      30.00S
FARMVILLE*     PTSUNNY   76  71  83 NE5       29.99S
CREWE*         CLOUDY    73  72  95 CALM      30.00S
FORT PICKETT*  NOT AVBL
CHASE CITY*    CLOUDY    75  71  88 E3        30.00F
CLARKSVILLE*   CLOUDY    72  70  94 CALM      29.99F
SOUTH HILL*    PTSUNNY   73  68  82 CALM      30.05S
LAWRENCEVILLE* PTSUNNY   72  68  88 CALM      29.99F
EMPORIA*       PTSUNNY   73  68  83 N5        30.00S
$$

VAZ088>098-311600-
SOUTHEAST VIRGINIA

CITY           SKY/WX    TMP DP  RH WIND       PRES   REMARKS
NORFOLK        CLOUDY    74  69  85 NE9       29.98S
VIRGINIA BEACH PTSUNNY   81  69  67 N7        29.97S
NORFOLK NAVAL  CLOUDY    73  69  87 NE10      30.00R
WEST POINT*    CLOUDY    76  68  77 CALM      30.00S
SALUDA*        CLOUDY    74  70  89 CALM      29.98F
NEWPORT NEWS   CLOUDY    75  69  81 N6        29.98F
LANGLEY AFB    CLOUDY    73  70  88 N6        29.99R
FORT EUSTIS    PTSUNNY   75  72  91 VRB5      29.97S
WILLIAMSBURG*    N/A     75  72  88 CALM      29.99F
HR EXEC AP*    CLOUDY    75  72  88 N6        30.00S
FRANKLIN*      PTSUNNY   75  68  79 NE6       29.99S
US460-WAKEFLD  FAIR      76  67  73 VRB6      29.98F
$$

VAZ020-022-025-037-045-311600-
WEST CENTRAL AND SOUTHWEST VIRGINIA

CITY           SKY/WX    TMP DP  RH WIND       PRES   REMARKS
STAUNTON*      FAIR      75  63  67 NE5       30.06S
WAYNESBORO*    FAIR      75  63  65 N7        30.05S
HOT SPRINGS VA FAIR      69  54  57 E7        30.14S
LYNCHBURG      FAIR      78  64  61 NE8       30.03R
DANVILLE       FAIR      78  70  76 VRB5      30.00R
SOUTH BOSTON*  CLOUDY    74  71  88 E3        30.00S
MARTINSVILLE     N/A    N/A N/A N/A MISG        N/A
ROANOKE        FAIR      77  65  66 VRB7      30.05S
BLACKSBURG     FAIR      76  65  68 NE3       30.10S
DUBLIN*        FAIR      76  65  68 E8        30.08F
MARION*        FAIR      76  60  56 NE9       30.10F
HILLSVILLE*    FAIR      73  63  70 NE6       30.08F
RICHLANDS*     FAIR      74  42  31 NE5       30.10R
WISE*          FAIR      75  57  53 N6        30.11S
ABINGDON*      FAIR      78  63  59 E6        30.06S
$$

MDZ021>025-VAZ099-100-311600-
SOUTHERN MARYLAND AND THE DELMARVA PENINSULA

CITY           SKY/WX    TMP DP  RH WIND       PRES   REMARKS
PATUXENT RIVER PTSUNNY   76  67  73 CALM      29.98F
BAY BRIDGE APT CLOUDY    73  68  83 W6        29.99R
LEONARDTOWN    CLOUDY    73  66  78 CALM      30.00F
DOVER          SUNNY     77  73  88 N6        29.96F
GEORGETOWN     CLOUDY    76  67  73 NW5       29.99R
EASTON         MOSUNNY   77  72  83 CALM      30.01F
CAMBRIDGE      MOSUNNY   75  64  69 NW3       29.98S
SALISBURY      PTSUNNY   76  68  76 CALM      29.98S
OCEAN CITY     CLOUDY    69  66  90 E6        29.99R
WALLOPS ISLAND PTSUNNY   76  70  82 CALM      29.99S
ACCOMACK*      CLOUDY    73  68  83 CALM      29.99S
$$

NCZ012>017-030>032-311600-
NORTH CENTRAL AND EASTERN NORTH CAROLINA

CITY           SKY/WX    TMP DP  RH WIND       PRES   REMARKS
ROANOKE RAPIDS FAIR      73  68  83 N6        29.98S
RALEIGH        PTSUNNY   76  69  79 VRB7      29.99S
ELIZABETH CITY CLOUDY    77  69  76 NE6       29.98R
AHOSKIE*         N/A     74  68  80 NE7       29.98S
EDENTON*       CLOUDY   N/A N/A N/A NE5       29.98S
CURRITUCK*     PTSUNNY   76  70  80 NE5       29.99R
KILL DEVIL HLS CLOUDY    73  70  91 E6        29.97R
MANTEO         NOT AVBL
CAPE HATTERAS  CLOUDY    73  72  96 NE9       29.96S
TARBORO*       CLOUDY    76  69  80 N6        29.99R
GOLDSBORO      MOSUNNY   79  74  85 NE8       29.95S
WASHINGTON     PTSUNNY   73  70  89 N7        29.97R
GREENVILLE     CLOUDY    77  72  83 NE8       29.99S
NEW BERN       MOSUNNY   78  71  79 NE7       29.96S
WILMINGTON     CLOUDY    78  71  79 N12       29.91F
$$

VAZ048-311600-
ELSEWHERE

CITY           SKY/WX    TMP DP  RH WIND       PRES   REMARKS
HARRISBURG PA  SUNNY     78  60  53 VRB5      29.99F
BALTIMORE      MOSUNNY   79  67  66 N5        29.98S
ANNAPOLIS      CLOUDY    75  69  81 NW5       29.98S
ANDREWS AFB    PTSUNNY   75  70  83 NE7       29.99S
PHILADELPHIA   MOSUNNY   82  59  45 NE14      29.97S
HENDERSON NC   PTSUNNY   73  68  84 N5        30.00S
GREENSBORO     MOSUNNY   80  67  64 CALM      30.00S
ROCKY MOUNT    PTSUNNY   77  69  76 VRB6      29.98S
$$

VAZ100-311600-
MARINE

STATION/POSITION TIME  TEMP    WIND        PRES    WAVE   SWELL
                       AIR SEA DIR/SP/G            HT/PER HT/PER
                 (UTC) (F)     (DEG/KT/KT) (MB)    (FT/S) (FT/S)
BRANDYWINE LGT   1400   67     250/  4/  5 1015.3R
CAPE MAY NJ      1400   71 68  240/  4/  4 1014.9S
LEWES DE         1400   69 64  320/  2/  2 1015.0S
15NM E FENWICK I 1450   66 65              1015.3S   4/ 8
OCEAN-CITY-INLET 1400   66 63   90/  6/  8 1015.5R
WACHAPREAGUE VA  1400   72 74   90/  2/  3 1014.9F
THOMAS POINT MD  1500   72 69   CALM  /  1 1016.9R
GOOSES REEF MD   1500   72 71  180/  4/  4 1016.4F   0
COVE POINT MD    1400   69     190/  2/  3 1016.1S
SOLOMONS ISLAND  1400   71 68  110/  3/  3   N/A
BISHOPS HEAD MD  1400   72 73   50/  3/  5 1015.6R
PINEY POINT MD   1400          230/  1/  2   N/A
POTOMAC MD       1500   70 72  140/  2/  2 1014.5S   0
CAMBRIDGE MD     1400   73 70   30/  3/  4 1014.5R
LEWISETTA VA     1400   70 72  110/  2/  3 1015.3R
RAPPAHANNOCK LGT 1400          300/  2/  2 1016.1R
STINGRAY PT      1500   70 69   10/  6/  6 1015.8F   1
YORK RVR RNG VA  1400   70      60/  5/  6 1015.0R
YORKTOWN VA      1400   71 71   50/  3/  3 1015.2R
JAMESTOWN VA     1500   74 76   90/  4/  6   N/A     0
DOMINION TERM VA 1400   71      80/  5/  7 1015.2S
KIPTOPEKE VA     1400      69  330/  6/  6   N/A
CHES BAY BRIDGE  1400   70 70   10/  5/  6 1015.1S
CAPE HENRY VA    1400   70      30/  2/  3   N/A
WILLOUBY STN VA  1400   70      40/  4/  5 1016.2S
CAPE HENRY BUOY  1412      71                N/A     3/ 8
1ST LANDING BUOY 1500   69 70   10/  4/  4 1015.5R   2/ 6
CAPE CHARLES BUO 1426      71                N/A     3/ 7
OFFSHORE WE BUOY 1421      71                N/A     5/ 8
64NM E OF VA BCH 1450   65 65   20/  8/ 10 1014.9R   5/ 9   5/ 9
DUCK PIER NC     1400   67 59   40/  6/  7 1014.2F
44056 DUCK FRF   1411      65                N/A     3/ 7
OREGON INLET NC  1400   68 71   10/  9/ 13 1014.4S
HATTERAS NC      1400   72 74   40/  7/  9 1013.9F
DIAMOND SHLS NC  1450   76 80  290/ 10/ 14 1014.2R   5/ 8   3/ 8
CAPE LOOKOUT NC  1500   76      40/ 10/ 11 1013.4F
$$




USA.gov is the U.S. government's official web portal to all federal, state and local government web resources and services.